Home   Weather   Mosjøen   Past weeks

Flag for Norway Past Weather in Mosjøen, Norway — Yesterday and Last 2 Weeks

Now
38 °F

Chilly.


Feels Like: 32 °F
Forecast: 36 / 41 °F
Wind: 8 mph from South

Location: Mosjoen Kjaerstad

Current Time: Jan 24, 2017 at 8:25:25 pm

Latest Report: Jan 24, 2017 at 7:00 pm


Visibility: N/A

Pressure: 29.89 "Hg

Humidity: 80%

Dew Point: 32 °F

Location of MosjøenLocation

Past Weather in Mosjøen — Graph

°F

Mosjøen Temperature Yesterday

Maximum temperature yesterday: 38 °F (at 1:00 am)
Minimum temperature yesterday: 32 °F (at 12:00 pm)
Average temperature yesterday: 34 °F

High & Low Weather Summary for the Past Weeks

 TemperatureHumidityPressure
High47 °F (Jan 18, 3:00 pm)96% (Jan 9, 7:00 pm)30.28 "Hg (Jan 9, 7:00 pm)
Low14 °F (Jan 16, 10:00 am)60% (Jan 19, 3:00 pm)28.61 "Hg (Jan 12, 2:00 am)
Average33 °F89%29.63 "Hg
* Reported Jan 9 7:00 pm — Jan 24 7:00 pm, Mosjøen, Weather by CustomWeather, © 2017

Note: Actual official high and low records may vary slightly from our data, if they occured in-between our weather recording intervals... More about our weather records

Advertising

Mosjøen Weather History for the Previous 24 Hours

Scroll right to see more
 ConditionsComfort  
Time TempWeatherWind HumidityBarometerVisibility
7:00 pm
Tue, Jan 24
38 °FChilly.8 mph80%29.89 "HgN/A
6:00 pm38 °FChilly.7 mph80%29.92 "HgN/A
5:00 pm37 °FChilly.7 mph83%29.93 "HgN/A
4:00 pm36 °FChilly.2 mph88%29.96 "HgN/A
3:00 pm37 °FChilly.7 mph84%29.96 "HgN/A
2:00 pm35 °FChilly.2 mph92%29.96 "HgN/A
1:00 pm35 °FChilly.2 mph92%29.98 "HgN/A
12:00 pm35 °FChilly.3 mph93%29.99 "HgN/A
11:00 am34 °FChilly.2 mph93%30.01 "HgN/A
10:00 am34 °FChilly.1 mph95%30.01 "HgN/A
9:00 am32 °FChilly.1 mph95%30.00 "HgN/A
8:00 am32 °FChilly.1 mph95%30.00 "HgN/A
7:00 am32 °FChilly.No wind96%30.00 "HgN/A
6:00 am32 °FChilly.1 mph96%29.99 "HgN/A
5:00 am32 °FChilly.1 mph95%30.00 "HgN/A
4:00 am32 °FChilly.1 mph95%30.00 "HgN/A
3:00 am32 °FChilly.1 mph95%29.98 "HgN/A
2:00 am32 °FChilly.1 mph96%29.97 "HgN/A
1:00 am32 °FChilly.2 mph94%29.96 "HgN/A
12:00 am32 °FChilly.2 mph92%29.96 "HgN/A
11:00 pm
Mon, Jan 23
33 °FChilly.1 mph91%29.94 "HgN/A
10:00 pm33 °FChilly.1 mph93%29.92 "HgN/A
9:00 pm34 °FChilly.1 mph94%29.89 "HgN/A
8:00 pm33 °FChilly.1 mph93%29.86 "HgN/A
Weather by CustomWeather, © 2017

See weather overviewHow to use our weather pages